Location: Croisilles
(50.1998°N, 2.8793°E)
Time: 02:37:42
(UTC+00:00)

Ariane Rocket - Pass Details

Date: 21 January 2021
Orbit: 760 x 769 km, 98.7° (Epoch: 24 February)

Event Time Altitude Azimuth Distance (km) Brightness Sun altitude
Exits shadow 19:12:49 25° 4° (N) 1,514 4.4 -26.6°
Drops below altitude 10° 19:15:01 10° 353° (N) 2,319 5.6 -26.9°
Sets 19:17:23 0° 349° (N) 3,251 6.4 -27.3°
